Home > Weather > Warstein > Past weeks

Flag for Germany Weather for the Past 2 Weeks in Warstein, North Rhine-Westphalia, Germany

Now
43 °F

Clear.


Feels Like: 38 °F
Forecast: 50 / 70 °F
Wind: 8 mph from Southeast

Location: Paderborn / Lippstadt

Current Time: May 5, 2016 at 6:01:10 AM

Latest Report: May 5, 2016 at 5:20 AM


Visibility: 10 mi

Pressure: 30.36 "Hg

Humidity: 66%

Dew Point: 32 °F

Location of WarsteinLocation

Historic Weather in Warstein — Graph

°F

Warstein Temperature Yesterday

Maximum temperature yesterday: 57 °F (at 5:50 PM)
Minimum temperature yesterday: 39 °F (at 1:50 AM)
Average temperature yesterday: 47 °F

High & Low Weather Summary for the Past Weeks

 TemperatureHumidityPressure
High66 °F (May 2, 3:20 PM)100% (Apr 20, 4:20 AM)30.45 "Hg (Apr 20, 4:20 AM)
Low32 °F (Apr 24, 4:20 PM)28% (May 2, 2:50 PM)29.45 "Hg (Apr 26, 10:50 AM)
Average44 °F77%30.02 "Hg
* Reported Apr 20 4:20 AM — May 5 4:50 AM, Warstein, Weather by CustomWeather, © 2016

Note: Actual official high and low records may vary slightly from our data, if they occured in-between our weather recording intervals... More about our weather records

Advertising

Warstein Weather History for the Previous 24 Hours

Scroll right to see more
 ConditionsComfort  
Time TempWeatherWind HumidityBarometerVisibility
4:50 AM
Thu, May 5
43 °FClear.7 mph66%30.33 "Hg10 mi
4:20 AM43 °FClear.6 mph66%30.36 "Hg10 mi
3:50 AM41 °FClear.5 mph70%30.33 "Hg10 mi
3:20 AM43 °FClear.5 mph66%30.36 "Hg10 mi
2:50 AM43 °FClear.5 mph66%30.36 "Hg10 mi
2:20 AM43 °FClear.5 mph66%30.36 "Hg10 mi
1:50 AM43 °FClear.6 mph66%30.36 "Hg10 mi
1:20 AM43 °FClear.6 mph66%30.36 "Hg10 mi
12:50 AM43 °FClear.6 mph66%30.36 "Hg10 mi
12:20 AM43 °FClear.6 mph66%30.36 "Hg10 mi
11:50 PM
Wed, May 4
45 °FClear.6 mph61%30.36 "Hg10 mi
11:20 PM45 °FClear.7 mph66%30.36 "Hg10 mi
10:50 PM45 °FClear.7 mph61%30.36 "Hg10 mi
10:20 PM46 °FClear.6 mph62%30.36 "Hg10 mi
9:50 PM48 °FSunny.5 mph54%30.36 "Hg10 mi
9:20 PM50 °FSunny.5 mph50%30.36 "Hg10 mi
8:50 PM52 °FSunny.6 mph47%30.36 "Hg10 mi
8:20 PM52 °FSunny.5 mph47%30.36 "Hg10 mi
7:50 PM54 °FSunny.7 mph41%30.36 "Hg10 mi
7:20 PM55 °FSunny.6 mph38%30.36 "Hg10 mi
6:50 PM54 °FSunny.3 mph41%30.36 "Hg10 mi
6:20 PM57 °FSunny.7 mph33%30.36 "Hg10 mi
5:50 PM57 °FSunny.3 mph39%30.36 "Hg10 mi
5:20 PM55 °FSunny.5 mph41%30.36 "Hg10 mi
4:50 PM55 °FSunny.3 mph38%30.36 "Hg10 mi
4:20 PM55 °FPassing clouds.5 mph38%30.36 "HgN/A
3:50 PM55 °FSunny.5 mph44%30.36 "Hg10 mi
3:20 PM55 °FSunny.3 mph41%30.39 "Hg10 mi
2:50 PM55 °FSunny.5 mph47%30.39 "Hg10 mi
2:20 PM54 °FPassing clouds.5 mph44%30.39 "HgN/A
1:50 PM54 °FScattered clouds.5 mph44%30.39 "HgN/A
1:20 PM52 °FScattered clouds.6 mph50%30.39 "HgN/A
12:50 PM52 °FScattered clouds.6 mph58%30.39 "HgN/A
12:20 PM50 °FScattered clouds.3 mph58%30.39 "HgN/A
11:50 AM48 °FScattered clouds.5 mph71%30.42 "HgN/A
11:20 AM46 °FScattered clouds.5 mph71%30.39 "HgN/A
10:50 AM46 °FScattered clouds.5 mph71%30.42 "HgN/A
10:20 AM46 °FScattered clouds.5 mph71%30.42 "HgN/A
9:50 AM46 °FScattered clouds.5 mph76%30.42 "HgN/A
9:20 AM46 °FScattered clouds.5 mph87%30.39 "HgN/A
8:50 AM45 °FPassing clouds.5 mph87%30.39 "HgN/A
8:20 AM45 °FPassing clouds.3 mph87%30.39 "HgN/A
7:50 AM43 °FPassing clouds.3 mph100%30.39 "HgN/A
7:20 AM41 °FScattered clouds.5 mph100%30.39 "HgN/A
6:50 AM39 °FScattered clouds.3 mph100%30.39 "HgN/A
6:20 AM39 °FPartly cloudy.3 mph100%30.39 "HgN/A
Weather by CustomWeather, © 2016

See weather overviewHow to use our weather pages